Weather History for KABI - January, 2014

Change the Weather History Date:

Sunday, January 26, 2014

  Actual Average Record
Temperature  
Mean Temperature 55 °F 46 °F  
Max Temperature 72 °F 58 °F 86 °F (1953)
Min Temperature 38 °F 34 °F 10 °F (1897)
Degree Days  
Heating Degree Days 10 19  
Month to date heating degree days 498 529  
Since 1 July heating degree days 1668 1574  
Cooling Degree Days 0 0  
Month to date cooling degree days 0 0  
Year to date cooling degree days 0 0  
Growing Degree Days 8 (Base 50)    
Moisture  
Dew Point 18 °F    
Average Humidity 25    
Maximum Humidity 38    
Minimum Humidity 11    
Precipitation  
Precipitation 0.00 in 0.04 in 0.69 in (1992)
Month to date precipitation T 0.83  
Year to date precipitation T 0.83  
Sea Level Pressure  
Sea Level Pressure 29.77 in    
Wind  
Wind Speed 10 mph (SW)    
Max Wind Speed 21 mph    
Max Gust Speed 25 mph    
Visibility 10 miles    
Events      
T = Trace of Precipitation, MM = Missing Value Source: NWS Daily Summary

Daily Weather History Graph

Daily Weather History Graph

Search for Another Location

Airport or City:

Trip Planner

Search our weather history database for the weather conditions in past years. The results will help you decide how hot, cold, wet, or windy it might be!

Date:

Astronomy

Jan. 26, 2014 Rise Set
Actual Time 7:36 AM CST 6:06 PM CST
Civil Twilight 7:10 AM CST 6:32 PM CST
Nautical Twilight 6:40 AM CST 7:02 PM CST
Astronomical Twilight 6:11 AM CST 7:31 PM CST
Moon 3:14 AM CST (1/26) 1:59 PM CST (1/26)
Length of Visible Light 11h 22m
Length of Day
10h 29m
Waning Crescent, 23% of the Moon is Illuminated
Jan 26
Waning Crescent
Jan 30
New
Feb 6
First Quarter
Feb 14
Full
Feb 22
Last Quarter

Hourly Weather History & Observations

Time (CST) Temp. Windchill Dew Point Humidity Pressure Visibility Wind Dir Wind Speed Gust Speed Precip Events Conditions
12:52 AM 52.0 °F - 21.9 °F 31% 29.92 in 10.0 mi South 5.8 mph - N/A   Scattered Clouds
1:52 AM 54.0 °F - 19.0 °F 25% 29.88 in 10.0 mi South 8.1 mph - N/A   Mostly Cloudy
2:52 AM 53.1 °F - 19.9 °F 27% 29.86 in 10.0 mi SSW 6.9 mph - N/A   Mostly Cloudy
3:52 AM 54.0 °F - 19.0 °F 25% 29.83 in 10.0 mi SSW 13.8 mph - N/A   Overcast
4:52 AM 52.0 °F - 19.9 °F 28% 29.81 in 10.0 mi SSW 16.1 mph - N/A   Partly Cloudy
5:52 AM 48.9 °F - 19.9 °F 32% 29.81 in 10.0 mi South 8.1 mph - N/A   Clear
6:52 AM 48.0 °F - 21.9 °F 36% 29.80 in 10.0 mi SSW 8.1 mph - N/A   Clear
7:52 AM 46.0 °F 42.5 °F 23.0 °F 40% 29.79 in 10.0 mi SSW 6.9 mph - N/A   Clear
8:52 AM 50.0 °F - 24.1 °F 36% 29.78 in 10.0 mi SSW 12.7 mph - N/A   Clear
9:52 AM 55.9 °F - 25.0 °F 30% 29.77 in 10.0 mi SW 13.8 mph - N/A   Clear
10:52 AM 63.0 °F - 24.1 °F 23% 29.76 in 10.0 mi WSW 11.5 mph - N/A   Clear
11:52 AM 69.1 °F - 15.1 °F 13% 29.72 in 10.0 mi WSW 10.4 mph 19.6 mph N/A   Clear
12:52 PM 71.1 °F - 15.1 °F 12% 29.68 in 10.0 mi West 13.8 mph 23.0 mph N/A   Clear
1:52 PM 70.0 °F - 18.0 °F 14% 29.66 in 10.0 mi WNW 20.7 mph 25.3 mph N/A   Clear
2:52 PM 70.0 °F - 17.1 °F 13% 29.65 in 10.0 mi WNW 15.0 mph 25.3 mph N/A   Clear
3:52 PM 70.0 °F - 14.0 °F 12% 29.66 in 10.0 mi WNW 15.0 mph 20.7 mph N/A   Clear
4:52 PM 69.1 °F - 12.9 °F 11% 29.68 in 10.0 mi NW 12.7 mph - N/A   Clear
5:52 PM 64.0 °F - 14.0 °F 14% 29.70 in 10.0 mi NNW 10.4 mph - N/A   Clear
6:52 PM 61.0 °F - 12.9 °F 15% 29.73 in 10.0 mi North 5.8 mph - N/A   Clear
7:52 PM 59.0 °F - 14.0 °F 17% 29.76 in 10.0 mi North 3.5 mph - N/A   Clear
8:52 PM 48.9 °F - 15.1 °F 26% 29.79 in 10.0 mi South 5.8 mph - N/A   Clear
9:52 PM 46.0 °F 44.8 °F 15.1 °F 29% 29.82 in 10.0 mi SSW 3.5 mph - N/A   Clear
10:52 PM 46.0 °F - 15.1 °F 29% 29.83 in 10.0 mi Calm Calm - N/A   Clear
11:52 PM 44.1 °F 42.5 °F 16.0 °F 32% 29.83 in 10.0 mi South 3.5 mph - N/A   Clear